pdstime, d2_rate
1986-01-24T10:09:02.000, 28.7
1986-01-24T10:10:38.000, 28
1986-01-24T10:12:14.000, 29.7
1986-01-24T10:13:50.000, 31.7
1986-01-24T10:18:38.000, 24.8
1986-01-24T10:23:26.000, 27.8
1986-01-24T10:25:02.000, 29.7
1986-01-24T10:26:38.000, 29.8
1986-01-24T10:28:14.000, 33.2
1986-01-24T10:29:50.000, 30.7
1986-01-24T10:31:26.000, 27.7
1986-01-24T10:33:02.000, 33.2
1986-01-24T10:34:38.000, 32
1986-01-24T10:36:14.000, 29.2
1986-01-24T10:37:50.000, 25.7
1986-01-24T10:39:26.000, 26.7
1986-01-24T10:41:02.000, 27.5
1986-01-24T10:42:38.000, 28
1986-01-24T10:44:14.000, 30.5
1986-01-24T10:45:50.000, 29.2
1986-01-24T10:47:26.000, 28.8
1986-01-24T10:49:02.000, 31.7
1986-01-24T10:50:38.000, 30.5
1986-01-24T10:52:14.000, 27.3
1986-01-24T10:53:50.000, 30.3
1986-01-24T10:55:26.000, 30
1986-01-24T10:57:02.000, 31.7
1986-01-24T10:58:38.000, 30.2
1986-01-24T11:03:26.000, 30
1986-01-24T11:05:02.000, 31.7
1986-01-24T11:06:38.000, 30.7
1986-01-24T11:08:14.000, 35.5
1986-01-24T11:09:50.000, 31.2
1986-01-24T11:11:26.000, 29
1986-01-24T11:13:02.000, 28.2
1986-01-24T11:14:38.000, 33
1986-01-24T11:16:14.000, 27
1986-01-24T11:17:50.000, 29.8
1986-01-24T11:19:26.000, 29
1986-01-24T11:21:02.000, 31
1986-01-24T11:22:38.000, 26.7
1986-01-24T11:24:14.000, 29.2
1986-01-24T11:25:50.000, 25.8
1986-01-24T11:27:26.000, 27.8
1986-01-24T11:29:02.000, 28.5
1986-01-24T11:30:38.000, 27.8
1986-01-24T11:32:14.000, 25.3
1986-01-24T11:33:50.000, 30.2
1986-01-24T11:35:26.000, 28.5
1986-01-24T11:37:02.000, 26
1986-01-24T11:38:38.000, 31.7
1986-01-24T11:40:14.000, 25.8
1986-01-24T11:41:50.000, 32.5
1986-01-24T11:46:38.000, 29.7
1986-01-24T11:56:14.000, 29.3
1986-01-24T12:04:14.000, 32.7
1986-01-24T12:05:50.000, 33
1986-01-24T12:07:26.000, 29.3
1986-01-24T12:13:50.000, 28.5
1986-01-24T12:15:26.000, 25.7
1986-01-24T12:17:02.000, 29.2
1986-01-24T12:18:38.000, 31.8
1986-01-24T12:20:14.000, 29
1986-01-24T12:21:50.000, 28.7
1986-01-24T12:23:26.000, 33.3
1986-01-24T12:25:02.000, 29.3
1986-01-24T12:29:50.000, 31.3
1986-01-24T12:31:26.000, 31.2
1986-01-24T12:33:02.000, 28.7
1986-01-24T12:34:38.000, 34.2
1986-01-24T12:36:14.000, 35.8
1986-01-24T12:37:50.000, 33
1986-01-24T12:39:26.000, 31.3
1986-01-24T12:41:02.000, 28.3
1986-01-24T12:42:38.000, 29
1986-01-24T12:44:14.000, 33.5
1986-01-24T12:45:50.000, 34.8
1986-01-24T12:47:26.000, 32.5
1986-01-24T12:49:02.000, 32.7
1986-01-24T12:50:38.000, 35.3
1986-01-24T12:52:14.000, 40.5
1986-01-24T12:53:50.000, 35
1986-01-24T12:55:26.000, 35.5
1986-01-24T12:57:02.000, 39.8
1986-01-24T12:58:38.000, 39.8
1986-01-24T13:00:14.000, 38.5
1986-01-24T13:01:50.000, 37.2
1986-01-24T13:03:26.000, 39.7
1986-01-24T13:05:02.000, 42.8
1986-01-24T13:06:38.000, 44.5
1986-01-24T13:08:14.000, 43.2
1986-01-24T13:09:50.000, 43.8
1986-01-24T13:11:26.000, 41.8
1986-01-24T13:13:02.000, 47.2
1986-01-24T13:14:38.000, 45.8
1986-01-24T13:16:14.000, 47.8
1986-01-24T13:17:50.000, 52.2
1986-01-24T13:19:26.000, 47.8
1986-01-24T13:21:02.000, 50.8
1986-01-24T13:22:38.000, 54.8
1986-01-24T13:24:14.000, 52.2
1986-01-24T13:25:50.000, 50.2
1986-01-24T13:27:26.000, 52.2
1986-01-24T13:29:02.000, 47.8
1986-01-24T13:30:38.000, 50.8
1986-01-24T13:32:14.000, 49.5
1986-01-24T13:33:50.000, 49.2
1986-01-24T13:35:26.000, 46.8
1986-01-24T13:37:02.000, 43.8
1986-01-24T13:38:38.000, 47.2
1986-01-24T13:40:14.000, 48.2
1986-01-24T13:41:50.000, 39
1986-01-24T13:43:26.000, 39.8
1986-01-24T13:49:50.000, 49.2
1986-01-24T13:51:26.000, 50.2
1986-01-24T13:53:02.000, 51.5
1986-01-24T13:54:38.000, 49.5
1986-01-24T13:56:14.000, 59.5
1986-01-24T13:57:50.000, 60.2
1986-01-24T13:59:26.000, 69.8
1986-01-24T14:01:02.000, 68.2
1986-01-24T14:02:38.000, 71.8
1986-01-24T14:04:14.000, 81.8
1986-01-24T14:05:50.000, 91.7
1986-01-24T14:07:26.000, 103
1986-01-24T14:17:02.000, 165.7
1986-01-24T14:21:50.000, 202
1986-01-24T14:23:26.000, 207.3
1986-01-24T14:25:02.000, 222
1986-01-24T14:26:38.000, 214
1986-01-24T14:28:14.000, 224.7
1986-01-24T14:29:50.000, 244.7
1986-01-24T14:31:26.000, 251.3
1986-01-24T14:33:02.000, 240.7
1986-01-24T14:34:38.000, 255.3
1986-01-24T14:37:50.000, 278
1986-01-24T14:39:26.000, 267.3
1986-01-24T14:45:50.000, 263.3
1986-01-24T14:47:26.000, 252.7
1986-01-24T14:49:02.000, 246
1986-01-24T14:50:38.000, 231.3
1986-01-24T14:52:14.000, 235.3
1986-01-24T14:53:50.000, 243.3
1986-01-24T14:55:26.000, 248.7
1986-01-24T14:57:02.000, 231.3
1986-01-24T15:01:50.000, 216.7
1986-01-24T15:03:26.000, 216.7
1986-01-24T15:05:02.000, 194
1986-01-24T15:25:50.000, 89
1986-01-24T15:27:26.000, 80.2
1986-01-24T15:29:02.000, 77.5
1986-01-24T15:30:38.000, 75.8
1986-01-24T15:32:14.000, 68.5
1986-01-24T15:33:50.000, 62.8
1986-01-24T15:35:26.000, 66.8
1986-01-24T15:43:26.000, 52.2
1986-01-24T15:45:02.000, 51.8
1986-01-24T15:46:38.000, 50.8
1986-01-24T15:48:14.000, 47.8
1986-01-24T15:49:50.000, 46.8
1986-01-24T15:54:38.000, 49.8
1986-01-24T15:56:14.000, 44.8
1986-01-24T15:57:50.000, 48.8
1986-01-24T16:07:26.000, 45.8
1986-01-24T16:09:02.000, 44.8
1986-01-24T16:10:38.000, 47.2
1986-01-24T16:12:14.000, 49.2
1986-01-24T16:13:50.000, 52.5
1986-01-24T16:17:02.000, 50.8
1986-01-24T16:18:38.000, 57.5
1986-01-24T16:20:14.000, 54.8
1986-01-24T16:21:50.000, 65.5
1986-01-24T16:23:26.000, 62.8
1986-01-24T16:25:02.000, 69.8
1986-01-24T16:26:38.000, 67.5
1986-01-24T16:28:14.000, 64.8
1986-01-24T16:29:50.000, 70.8
1986-01-24T16:31:26.000, 78.8
1986-01-24T16:33:02.000, 89
1986-01-24T16:34:38.000, 98.3
1986-01-24T16:39:26.000, 119
1986-01-24T16:41:02.000, 126.3
1986-01-24T16:42:38.000, 151.7
1986-01-24T16:44:14.000, 172.7
1986-01-24T16:45:50.000, 207.3
1986-01-24T16:47:26.000, 230
1986-01-24T16:49:02.000, 264.7
1986-01-24T16:50:38.000, 295.3
1986-01-24T16:52:14.000, 332.7
1986-01-24T16:53:50.000, 372
1986-01-24T16:57:02.000, 433.3
1986-01-24T16:58:38.000, 446.7
1986-01-24T17:00:14.000, 470.7
1986-01-24T17:01:50.000, 508
1986-01-24T17:03:26.000, 553.3
1986-01-24T17:08:14.000, 630.7
1986-01-24T17:09:50.000, 646.7
1986-01-24T17:11:26.000, 676
1986-01-24T17:13:02.000, 690.7
1986-01-24T17:14:38.000, 722.7
1986-01-24T17:19:26.000, 728
1986-01-24T17:21:02.000, 728
1986-01-24T17:22:38.000, 738.7
1986-01-24T17:24:14.000, 738.7
1986-01-24T17:25:50.000, 717.3
1986-01-24T17:27:26.000, 706.7
1986-01-24T17:29:02.000, 701.3
1986-01-24T17:33:50.000, 678.7
1986-01-24T17:35:26.000, 673.3
1986-01-24T17:37:02.000, 690.7
1986-01-24T17:38:38.000, 701.3
1986-01-24T17:40:14.000, 765.3
1986-01-24T17:41:50.000, 802.7
1986-01-24T17:43:26.000, 904
1986-01-24T17:45:02.000, 1026.7
1986-01-24T17:46:38.000, 1213.3
1986-01-24T17:48:14.000, 1456
1986-01-24T17:49:50.000, 1818.7
1986-01-24T17:51:26.000, 2373.3
1986-01-24T17:53:02.000, 3040
1986-01-24T17:54:38.000, 3850.7
1986-01-24T17:56:14.000, 4725.3
1986-01-24T17:57:50.000, 5952
1986-01-24T17:59:26.000, 7402.7
1986-01-24T18:01:02.000, 9152
1986-01-24T18:02:38.000, 11392
1986-01-24T18:04:14.000, 14208
1986-01-24T18:05:50.000, 17621.3
1986-01-24T18:10:38.000, 24320
1986-01-24T18:12:14.000, 25856
1986-01-24T18:13:50.000, 27050.7
1986-01-24T18:15:26.000, 28416
1986-01-24T18:17:02.000, 29610.7
1986-01-24T18:18:38.000, 30634.7
1986-01-24T18:20:14.000, 31658.7
1986-01-24T18:21:50.000, 32341.3
1986-01-24T18:28:14.000, 34389.3
1986-01-24T18:29:50.000, 34730.7
1986-01-24T18:31:26.000, 34901.3
1986-01-24T18:33:02.000, 35072
1986-01-24T18:34:38.000, 35242.7
1986-01-24T18:36:14.000, 35242.7
1986-01-24T18:37:50.000, 35072
1986-01-24T18:39:26.000, 34901.3
1986-01-24T18:41:02.000, 34730.7
1986-01-24T18:42:38.000, 34389.3
1986-01-24T18:44:14.000, 33877.3
1986-01-24T18:45:50.000, 33365.3
1986-01-24T18:47:26.000, 32853.3
1986-01-24T18:49:02.000, 32170.7
1986-01-24T18:50:38.000, 31317.3
1986-01-24T18:52:14.000, 30293.3
1986-01-24T18:53:50.000, 29098.7
1986-01-24T19:01:50.000, 17792
1986-01-24T19:03:26.000, 14378.7
1986-01-24T19:05:02.000, 11392
1986-01-24T19:06:38.000, 8853.3
1986-01-24T19:08:14.000, 7189.3
1986-01-24T19:09:50.000, 5781.3
1986-01-24T19:11:26.000, 4768
1986-01-24T19:16:14.000, 2469.3
1986-01-24T19:17:50.000, 2064
1986-01-24T19:22:38.000, 1829.3
1986-01-24T19:24:14.000, 1978.7
1986-01-24T19:25:50.000, 2192
1986-01-24T19:27:26.000, 2448
1986-01-24T19:29:02.000, 2741.3
1986-01-24T19:30:38.000, 3061.3
1986-01-24T19:32:14.000, 3338.7
1986-01-24T19:33:50.000, 3680
1986-01-24T19:35:26.000, 3914.7
1986-01-24T19:37:02.000, 4192
1986-01-24T19:38:38.000, 4490.7
1986-01-24T19:40:14.000, 4682.7
1986-01-24T19:41:50.000, 4917.3
1986-01-24T19:43:26.000, 5109.3
1986-01-24T19:51:26.000, 5568
1986-01-24T19:53:02.000, 5610.7
1986-01-24T19:54:38.000, 5568
1986-01-24T19:56:14.000, 5525.3
1986-01-24T19:57:50.000, 5450.7
1986-01-24T19:59:26.000, 5386.7
1986-01-24T20:01:02.000, 5237.3
1986-01-24T20:02:38.000, 5088
1986-01-24T20:04:14.000, 4896
1986-01-24T20:05:50.000, 4640
1986-01-24T20:07:26.000, 4384
1986-01-24T20:09:02.000, 4128
1986-01-24T20:10:38.000, 3829.3
1986-01-24T20:12:14.000, 3488
1986-01-24T20:13:50.000, 3146.7
1986-01-24T20:15:26.000, 2805.3
1986-01-24T20:17:02.000, 2384
1986-01-24T20:18:38.000, 1989.3
1986-01-24T20:20:14.000, 1616
1986-01-24T20:21:50.000, 1208
1986-01-24T20:23:26.000, 882.7
1986-01-24T20:25:02.000, 548
1986-01-24T20:26:38.000, 316.7
1986-01-24T20:28:14.000, 208.7
1986-01-24T20:29:50.000, 130.3
1986-01-24T20:31:26.000, 91.7
1986-01-24T20:33:02.000, 77.8
1986-01-24T20:37:50.000, 65.2
1986-01-24T20:39:26.000, 68.2
1986-01-24T20:41:02.000, 82.2
1986-01-24T20:42:38.000, 84.8
1986-01-24T20:44:14.000, 85.7
1986-01-24T20:45:50.000, 98.3
1986-01-24T20:47:26.000, 105
1986-01-24T20:49:02.000, 111
1986-01-24T20:50:38.000, 129
1986-01-24T20:52:14.000, 123.7
1986-01-24T20:53:50.000, 117.7
1986-01-24T20:55:26.000, 125
1986-01-24T20:57:02.000, 125.7
1986-01-24T20:58:38.000, 127
1986-01-24T21:00:14.000, 121.7
1986-01-24T21:01:50.000, 127
1986-01-24T21:03:26.000, 115.7
1986-01-24T21:05:02.000, 113
1986-01-24T21:06:38.000, 117.7
1986-01-24T21:08:14.000, 93.7
1986-01-24T21:09:50.000, 95.7
1986-01-24T21:11:26.000, 82.8
1986-01-24T21:13:02.000, 83.5
1986-01-24T21:14:38.000, 69.8
1986-01-24T21:16:14.000, 63.2
1986-01-24T21:17:50.000, 56.2
1986-01-24T21:19:26.000, 52.8
1986-01-24T21:21:02.000, 52.8
1986-01-24T21:22:38.000, 39.8
1986-01-24T21:24:14.000, 34.2
1986-01-24T21:25:50.000, 36.7
1986-01-24T21:27:26.000, 35.5
1986-01-24T21:29:02.000, 34.3
1986-01-24T21:30:38.000, 35.5
1986-01-24T21:32:14.000, 35.8
1986-01-24T21:33:50.000, 36.7
1986-01-24T21:35:26.000, 33.8
1986-01-24T21:37:02.000, 37.5
1986-01-24T21:38:38.000, 34.2
1986-01-24T21:40:14.000, 35.8
1986-01-24T21:41:50.000, 28.8
1986-01-24T21:43:26.000, 28.8
1986-01-24T21:45:02.000, 34.3
1986-01-24T21:46:38.000, 34.7
1986-01-24T21:48:14.000, 32.5
1986-01-24T21:49:50.000, 30
1986-01-24T21:51:26.000, 33.3
1986-01-24T21:53:02.000, 36
1986-01-24T21:54:38.000, 30
1986-01-24T21:56:14.000, 30.8
1986-01-24T21:57:50.000, 32.8
1986-01-24T21:59:26.000, 28.2
1986-01-24T22:01:02.000, 32.5
1986-01-24T22:02:38.000, 31.7
1986-01-24T22:04:14.000, 31.3
1986-01-24T22:05:50.000, 26.7
1986-01-24T22:07:26.000, 30.7
1986-01-24T22:09:02.000, 27.7
1986-01-24T22:13:50.000, 31.3
1986-01-24T22:15:26.000, 30.5
1986-01-24T22:17:02.000, 33.3
1986-01-24T22:18:38.000, 25.8
1986-01-24T22:20:14.000, 25
1986-01-24T22:21:50.000, 30.2
1986-01-24T22:23:26.000, 31.7
1986-01-24T22:25:02.000, 32
1986-01-24T22:26:38.000, 28.2
1986-01-24T22:28:14.000, 29.3
1986-01-24T22:29:50.000, 29.5
1986-01-24T22:31:26.000, 31.3
1986-01-24T22:33:02.000, 31.2
1986-01-24T22:34:38.000, 27.2
1986-01-24T22:36:14.000, 31.8
1986-01-24T22:37:50.000, 30
1986-01-24T22:39:26.000, 26.8
1986-01-24T22:41:02.000, 30.3
1986-01-24T22:42:38.000, 32.3
1986-01-24T22:44:14.000, 26.8
1986-01-24T22:45:50.000, 29.8
1986-01-24T22:47:26.000, 34.8
1986-01-24T22:49:02.000, 27.3
1986-01-24T22:50:38.000, 26.8
1986-01-24T22:52:14.000, 25.3
1986-01-24T22:53:50.000, 33
1986-01-24T22:55:26.000, 25.5
1986-01-24T22:57:02.000, 35
1986-01-24T22:58:38.000, 28.3
1986-01-24T23:00:14.000, 27.8
1986-01-24T23:01:50.000, 27
1986-01-24T23:03:26.000, 29.3
1986-01-24T23:05:02.000, 29.3
